Flag for Hungary Weather past 2 weeks in Pécs, Hungary

Now
43 °F

Overcast.


Feels Like: 38 °F
Forecast: 29 / 40 °F
Wind: 8 mph from Southeast

Location: Pecs / Pogany

Current Time: Jan 30, 2015 at 12:10:49 PM

Latest Report: Jan 30, 2015 at 11:00 AM


Visibility: 25 mi

Pressure: 28.88 "Hg

Humidity: 75%

Dew point: 35 °F

Location of PécsLocation

Historic Weather in Pécs — Graph

°F

Pécs temperature yesterday

Maximum temperature yesterday: 35 °F (at 11:00 PM)
Minimum temperature yesterday: 24 °F (at 5:00 AM)
Average temperature yesterday: 30 °F

Past Weeks' High & Low Weather Summary

 TemperatureHumidityPressure
High55 °F (Jan 16, 2:00 PM)100% (Jan 19, 1:00 AM)30.30 "Hg (Jan 19, 1:00 AM)
Low24 °F (Jan 29, 5:00 AM)50% (Jan 17, 1:00 PM)28.94 "Hg (Jan 30, 10:00 AM)
Average38 °F90%29.96 "Hg
* Reported Jan 15 10:00 AM — Jan 30 10:00 AM, Pécs, Weather by CustomWeather, © 2014

Note: Actual official high and low records may vary slightly from our data, if they occured in-between our weather recording intervals... More about our weather records

Advertising

Pécs weather history for previous 24 hours

 ConditionsComfort  
Time TempWeatherWind HumidityBarometerVisibility
10:00 AM
Jan 30
39 °FOvercast.7 mph84%28.94 "Hg25 mi
9:00 AM38 °FOvercast.5 mph83%28.97 "Hg19 mi
8:00 AM37 °FOvercast.6 mph85%29.00 "Hg19 mi
7:00 AM36 °FOvercast.3 mph89%29.06 "Hg9 mi
6:00 AM35 °FOvercast.6 mph90%29.06 "Hg6 mi
5:00 AM35 °FOvercast.6 mph92%29.12 "Hg4 mi
3:00 AM35 °FLight rain. Overcast.5 mph97%29.18 "Hg4 mi
2:00 AM35 °FLight rain. Overcast.5 mph97%29.23 "Hg4 mi
1:00 AM34 °FLight rain. Overcast.2 mph96%29.29 "Hg4 mi
12:00 AM35 °FLight rain. Overcast.3 mph92%29.35 "Hg5 mi
11:00 PM
Jan 29
35 °FLight rain. Overcast.3 mph91%29.38 "Hg5 mi
9:00 PM33 °FLight snow. Overcast.1 mph96%29.47 "Hg5 mi
8:00 PM32 °FOvercast.2 mph97%29.50 "Hg5 mi
7:00 PM32 °FOvercast.3 mph97%29.50 "Hg5 mi
6:00 PM32 °FOvercast.2 mph96%29.54 "Hg5 mi
5:00 PM33 °FOvercast.3 mph96%29.56 "Hg5 mi
4:00 PM34 °FOvercast.2 mph92%29.58 "Hg4 mi
3:00 PM33 °FOvercast.1 mph98%29.59 "Hg4 mi
2:00 PM32 °FFog.No wind98%29.61 "Hg2 mi
1:00 PM31 °FFog.1 mph98%29.63 "Hg1 mi
12:00 PM30 °FFog.1 mph98%29.65 "Hg1 mi
Weather by CustomWeather, © 2014

See weather overviewHow to use our weather pages